Live-Position
3D-Globus wird geladen...
Über Starlink 4464
Group: 3 satellites
Beschreibung wird geladen...
Nächste Überflüge
Passes for default location (London). Set your location on the main map for personalized predictions.
Höhenverlauf
Loading altitude history...
No altitude history available
Zweizeiliger Elementsatz
1 53669U 22105X 26110.25002315 .00131111 00000-0 60148-2 0 9996
2 53669 97.6034 351.4296 0001992 88.7857 327.5053 15.19840385 5840
Epoch: 20. Apr. 2026 •
Age: 9 hours
Aktueller Status
Höhe 510.4 km
Geschwindigkeit 7.61 km/s
Subsatellitenpunkt 37.50°N,
93.75°W
Startdatum 31. Aug. 2022
Alter 3.6 years
Typ internet
Startgruppe
Falcon 9 •
Group 3-4 •
41 satellites
Starlink 4622
53648
Starlink 4386 53649
Starlink 4380 53650
Starlink 4388 53651
Starlink 4374 53652
Starlink 4390 53653
Starlink 4420 53654
Starlink 4470 53655
Starlink 4466 53656
Starlink 4452 53658
Starlink 4473 53660
Starlink 4472 53661
Starlink 4357 53662
Starlink 4457 53663
Starlink 4471 53664
Starlink 4334 53665
Starlink 4406 53667
Starlink 4458 53668
Starlink 4459 53670
Starlink 4440 53671
...and 20 more
Technische Details
Klassifizierung Payload
Masse 300.00 kg
Trockenmasse 290.00 kg
Gesamtmasse 300.00 kg
Länge 0.20 m
Durchmesser 2.80 m
Spannweite 9.00 m
Form Box + pan
Hersteller SPXS
Bus-Typ Starlink
Phasenstatus In Orbit
Besitzer/Staat SPXS/US
Most Searched
Loading...